Hourly Data Report for October 26, 2015

All times are specified in Local Standard Time (LST). Add 1 hour to adjust for Daylight Saving Time where and when it is observed.

CHARLOTTETOWN A
PRINCE EDWARD ISLAND

46°17'21.000" N
63°07'09.000" W
48.50 m
8300301
71706
YYG

Download Data

Hourly Data (October 2015)
Hourly Data Report for October 26, 2015
Temp Definition
°C
Dew Point Temp Definition
°C
Rel Hum Definition
%
Wind Dir Definition
10's deg

Wind Spd Definition
km/h
Visibility Definition
km
Stn Press Definition
kPa
Hmdx Definition


Wind Chill Definition


Weather Definition


TIME
00:00 Legend Double Dagger 11.3 9.9 91 27 14 24.1 100.74     LegendNANA
01:00 Legend Double Dagger 8.5 6.3 86 32 19 24.1 100.87     LegendNANA
02:00 Legend Double Dagger 7.7 5.2 84 32 19 24.1 100.97     Mostly Cloudy
03:00 Legend Double Dagger 6.3 3.5 82 31 14 24.1 101.05     LegendNANA
04:00 Legend Double Dagger 6.3 3.3 81 30 13 24.1 101.13     LegendNANA
05:00 Legend Double Dagger 5.8 3.2 83 29 14 24.1 101.21     Mostly Cloudy
06:00 Legend Double Dagger 6.1 3.4 83 29 16 24.1 101.28     LegendNANA
07:00 Legend Double Dagger 5.8 3.3 84 29 12 24.1 101.36     LegendNANA
08:00 Legend Double Dagger 6.5 2.2 74 32 14 24.1 101.46     Cloudy
09:00 Legend Double Dagger 6.2 3.0 80 28 13 24.1 101.54     LegendNANA
10:00 Legend Double Dagger 6.6 1.7 71 31 15 24.1 101.61     Rain Showers
11:00 Legend Double Dagger 6.7 0.4 64 32 20 24.1 101.69     Mostly Cloudy
12:00 Legend Double Dagger 4.8 2.7 86 32 25 19.3 101.71     Rain Showers
13:00 Legend Double Dagger 5.5 2.3 80 32 22 19.3 101.73     LegendNANA
14:00 Legend Double Dagger 4.6 -0.2 71 33 22 24.1 101.81     Rain Showers
15:00 Legend Double Dagger 4.7 -1.3 65 33 18 24.1 101.84     LegendNANA
16:00 Legend Double Dagger 4.1 -2.1 64 34 14 24.1 101.89     LegendNANA
17:00 Legend Double Dagger 3.9 -1.7 67 31 13 24.1 101.97     Mostly Cloudy
18:00 Legend Double Dagger 2.8 -3.8 62 29 14 24.1 102.05     LegendNANA
19:00 Legend Double Dagger 2.2 -4.1 63 28 10 24.1 102.15     LegendNANA
20:00 Legend Double Dagger 1.5 -3.8 68 27 10 24.1 102.18     Mostly Cloudy
21:00 Legend Double Dagger 1.8 -4.1 65 28 12 24.1 102.23     LegendNANA
22:00 Legend Double Dagger 1.6 -4.5 64 27 12 24.1 102.28     LegendNANA
23:00 Legend Double Dagger 1.2 -4.7 65 27 13 24.1 102.31     Mostly Cloudy

Notes on Data Quality.

Legend

  • E = Estimated
  • M = Missing
  • NA = Not Available
  • ‡ = Partner data that is not subject to review by the National Climate Archives
Date modified: